This demonstration page uses our WeatherBlox Daily Observations layout. Learn more.

Left ArrowRight Arrow

Hourly Observations for July 30, 2018

Temp ( °F °C ) Dew Point ( °F °C ) Humidity (%) Winds ( mph kmh ) Pressure ( in mb ) Visibility ( mi km ) Precip ( " mm )
12:53 am 00:53 Mostly Clear with Smoke 81 27.2 65 18.3 58 58 Calm 29.90 1012 8 13 0.00 0.00
1:53 am 01:53 Clear with Smoke 81 27.2 63 17.2 54 54 Calm 29.89 1012 8 13 0.00 0.00
2:53 am 02:53 Clear with Smoke 77 25 63 17.2 62 62 WNW 3 6 29.89 1012 7 11 0.00 0.00
3:53 am 03:53 Clear with Smoke 77 25 62 16.7 60 60 N 6 9 29.88 1012 7 11 0.00 0.00
4:53 am 04:53 Hazy 76 24.4 61 16.1 60 60 Calm 29.88 1012 6 10 0.00 0.00
5:53 am 05:53 Hazy 74 23.3 63 17.2 69 69 NW 5 7 29.89 1012 6 10 0.00 0.00
6:53 am 06:53 Hazy 73 22.8 62 16.7 69 69 NNE 3 6 29.90 1013 4 6 0.00 0.00
7:53 am 07:53 Mostly Cloudy with Haze 77 25 61 16.1 58 58 N 3 6 29.90 1013 4 6 0.00 0.00
8:53 am 08:53 Cloudy with Haze 80 26.7 60 15.6 51 51 Calm 29.90 1013 4 6 0.00 0.00
9:53 am 09:53 Hazy 84 28.9 60 15.6 44 44 N 5 7 29.90 1012 3 5 0.00 0.00
10:53 am 10:53 Hazy 89 31.7 59 15 36 36 VRB 3 6 29.89 1012 4 6 0.00 0.00
11:53 am 11:53 Mostly Cloudy with Haze 93 33.9 57 13.9 30 30 VRB 3 6 29.87 1012 3 5 0.00 0.00
12:36 pm 12:36 Cloudy with Haze 95 35 57 13.9 28 28 W 7 11 29.85 1011 3 4 0.00 0.00
12:46 pm 12:46 Cloudy with Haze 95 35 56 13.3 27 27 WSW 6 9 29.85 1011 3 5 0.00 0.00
12:53 pm 12:53 Cloudy with Haze 95 35 55 12.8 26 26 VRB 5 7 29.86 1011 3 5 0.00 0.00
1:34 pm 13:34 Cloudy with Haze 98 36.7 55 12.8 24 24 Calm 29.85 1011 3 5 0.00 0.00
1:53 pm 13:53 Cloudy with Haze 98 36.7 54 12.2 23 23 Calm 29.84 1011 3 5 0.00 0.00
2:43 pm 14:43 Cloudy with Haze 98 36.7 56 13.3 24 24 SSW 7 11 29.83 1010 3 5 0.00 0.00
2:53 pm 14:53 Cloudy with Haze 98 36.7 56 13.3 24 24 SW 6 9 29.83 1010 3 5 0.00 0.00
3:53 pm 15:53 Cloudy with Haze 101 38.3 46 7.8 15 15 SSE 5 7 29.81 1009 2 3 0.00 0.00
4:53 pm 16:53 Cloudy with Haze 101 38.3 60 15.6 26 26 SSE 14 22 29.79 1009 3 5 0.00 0.00
5:53 pm 17:53 Cloudy with Haze 99 37.2 59 15 27 27 SSE 9 15 29.78 1009 4 6 0.00 0.00
6:53 pm 18:53 Cloudy with Haze 94 34.4 64 17.8 37 37 SSE 9 15 29.78 1009 5 8 0.00 0.00
7:53 pm 19:53 Cloudy with Haze 91 32.8 63 17.2 39 39 SE 6 9 29.80 1009 5 8 0.00 0.00
8:53 pm 20:53 Cloudy with Haze 86 30 62 16.7 45 45 SE 6 9 29.82 1010 6 10 0.00 0.00
9:53 pm 21:53 Cloudy with Smoke 84 28.9 63 17.2 49 49 SSE 6 9 29.84 1011 7 11 0.00 0.00
10:53 pm 22:53 Cloudy with Haze 84 28.9 64 17.8 51 51 Calm 29.85 1011 6 10 0.00 0.00
11:53 pm 23:53 Cloudy with Haze 81 27.2 64 17.8 57 57 Calm 29.86 1011 6 10 0.00 0.00

Powered by AerisWeather